Flag for Belgium Weather past 2 weeks in Leuven, Belgium

Now
32 °F

Passing clouds.


Feels Like: 22 °F
Forecast: 34 / 38 °F
Wind: 13 mph from West

Location: Brussels National Airport

Current Time: Jan 30, 2015 at 2:35:53 AM

Latest Report: Jan 30, 2015 at 1:50 AM


Visibility: N/A

Pressure: 28.80 "Hg

Humidity: 93%

Dew point: 30 °F

Location of LeuvenLocation

Historic Weather in Leuven — Graph

°F

Leuven temperature yesterday

Maximum temperature yesterday: 41 °F (at 12:50 PM)
Minimum temperature yesterday: 34 °F (at 1:20 AM)
Average temperature yesterday: 37 °F

Past Weeks' High & Low Weather Summary

 TemperatureHumidityPressure
High50 °F (Jan 15, 12:50 PM)100% (Jan 19, 1:50 AM)30.45 "Hg (Jan 19, 1:50 AM)
Low27 °F (Jan 22, 12:50 AM)66% (Jan 16, 1:20 PM)28.74 "Hg (Jan 29, 8:50 PM)
Average37 °F86%29.92 "Hg
* Reported Jan 15 1:20 AM — Jan 30 1:20 AM, Leuven, Weather by CustomWeather, © 2014

Note: Actual official high and low records may vary slightly from our data, if they occured in-between our weather recording intervals... More about our weather records

Advertising

Leuven weather history for previous 24 hours

 ConditionsComfort  
Time TempWeatherWind HumidityBarometerVisibility
1:20 AM
Jan 30
32 °FSprinkles. Passing clouds.10 mph93%28.80 "Hg2 mi
12:50 AM34 °FSprinkles. Passing clouds.16 mph87%28.80 "Hg2 mi
12:20 AM32 °FPassing clouds.12 mph93%28.77 "HgN/A
11:50 PM
Jan 29
34 °FPassing clouds.10 mph87%28.77 "HgN/A
11:20 PM34 °FPassing clouds.13 mph87%28.77 "HgN/A
10:50 PM34 °FSprinkles. Passing clouds.14 mph87%28.77 "Hg4 mi
10:20 PM34 °FSprinkles. Passing clouds.18 mph93%28.74 "Hg3 mi
9:50 PM37 °FPartly cloudy.13 mph81%28.74 "HgN/A
9:20 PM37 °FPartly cloudy.13 mph87%28.74 "HgN/A
8:50 PM37 °FPassing clouds.16 mph87%28.74 "HgN/A
8:20 PM37 °FPassing clouds.15 mph87%28.77 "HgN/A
7:50 PM37 °FPassing clouds.15 mph87%28.80 "HgN/A
7:20 PM37 °FPassing clouds.13 mph87%28.80 "HgN/A
6:50 PM37 °FPassing clouds.14 mph87%28.82 "HgN/A
6:20 PM37 °FPartly cloudy.14 mph87%28.85 "HgN/A
5:50 PM37 °FPartly cloudy.16 mph87%28.85 "HgN/A
5:20 PM39 °FBroken clouds.16 mph81%28.88 "HgN/A
4:50 PM39 °FBroken clouds.15 mph81%28.91 "HgN/A
4:20 PM39 °FPartly sunny.18 mph81%28.94 "HgN/A
3:50 PM39 °FPartly sunny.16 mph81%28.97 "HgN/A
3:20 PM41 °FPartly sunny.20 mph76%28.97 "HgN/A
2:50 PM39 °FPartly sunny.20 mph81%29.00 "HgN/A
2:20 PM39 °FPartly sunny.22 mph81%29.03 "HgN/A
1:50 PM39 °FPartly sunny.22 mph81%29.06 "HgN/A
1:20 PM41 °FPartly sunny.22 mph76%29.09 "HgN/A
12:50 PM41 °FPartly sunny.24 mph76%29.12 "HgN/A
12:20 PM39 °FPartly sunny.21 mph81%29.15 "HgN/A
11:50 AM39 °FPartly sunny.21 mph81%29.18 "HgN/A
11:20 AM39 °FScattered clouds.22 mph81%29.18 "HgN/A
10:50 AM37 °FScattered clouds.20 mph87%29.21 "HgN/A
10:20 AM37 °FScattered clouds.20 mph81%29.24 "HgN/A
9:50 AM37 °FScattered clouds.22 mph81%29.24 "HgN/A
9:20 AM36 °FScattered clouds.20 mph87%29.27 "HgN/A
8:50 AM36 °FPartly sunny.20 mph87%29.27 "HgN/A
8:20 AM36 °FPartly cloudy.18 mph87%29.30 "HgN/A
7:50 AM36 °FPassing clouds.18 mph87%29.30 "HgN/A
7:20 AM36 °FPartly cloudy.18 mph87%29.33 "HgN/A
6:50 AM36 °FPartly cloudy.21 mph87%29.33 "HgN/A
6:20 AM36 °FPassing clouds.21 mph87%29.36 "HgN/A
5:50 AM36 °FPassing clouds.22 mph81%29.36 "HgN/A
5:20 AM36 °FPassing clouds.18 mph81%29.39 "HgN/A
4:50 AM36 °FPassing clouds.18 mph81%29.39 "HgN/A
4:20 AM36 °FClear.18 mph81%29.39 "Hg10 mi
3:50 AM36 °FClear.20 mph81%29.42 "Hg10 mi
3:20 AM36 °FClear.15 mph81%29.45 "Hg10 mi
2:50 AM36 °FClear.14 mph75%29.45 "Hg10 mi
Weather by CustomWeather, © 2014

See weather overviewHow to use our weather pages